Location: Newark
(49.8753°N, 23.0797°E)
Time: 02:29:20
(UTC+00:00)

X-37B - Pass Details

Date: 30 June 2021
Orbit: 383 x 392 km, 45.0° (Epoch: 01 July)

Event Time Altitude Azimuth Distance (km) Brightness Sun altitude
Rises 20:09:51 0° 266° (W) 2,259 4.9 -10.5°
Reaches altitude 10° 20:12:07 10° 253° (WSW) 1,403 3.6 -10.7°
Maximum altitude 20:14:48 26° 194° (SSW) 806 1.8 -11.0°
Enters shadow 20:16:10 19° 155° (SSE) 998 2.0 -11.1°
